Regional Weather Roundup
Issued by NWS

Home | Current Version | Previous Version | Graphics & Text | Print | Product List | Glossary On
Versions: 1 2 3 4 5 6 7 8 9 10 11 12 13 14 15 16 17 18 19 20 21 22 23 24 25 26 27 28 29 30 31 32 33 34 35 36 37 38 39 40 41 42 43 44 45 46 47 48 49 50
000
ASUS44 KMEG 270700
RWRTN
TENNESSEE HOURLY STATE WEATHER ROUNDUP
NATIONAL WEATHER SERVICE MEMPHIS TN
100 AM CST TUE JAN 27 2015

TNZ002-004-019-021-049-052-054-088>092-270800-
WEST TENNESSEE

CITY           SKY/WX    TMP DP  RH WIND       PRES   REMARKS
MEMPHIS INTL   CLEAR     43  33  68 W5        29.94S
NWS MEMPHIS      N/A     33 N/A N/A MISG        N/A
JACKSON        CLEAR     28  24  85 CALM      29.92F
DYERSBURG      CLEAR     30  18  59 CALM      29.94F
UNION CITY     CLEAR     25  23  93 CALM      29.90F
PARIS          PTCLDY    30  27  86 SW5       29.90F WCI  25
LEXINGTON      CLEAR     28  27  93 CALM      29.89F
SAVANNAH       CLEAR     28  28 100 CALM      29.92F
$$

TNZ008-025-027-028-033-062-065-066-270800-
NORTH MIDDLE TENNESSEE

CITY           SKY/WX    TMP DP  RH WIND       PRES   REMARKS
NASHVILLE      CLOUDY    34  31  88 SE3       29.92F
CLARKSVILLE    CLOUDY    34  31  88 S3        29.89F
COOKEVILLE     MOCLDY    30  30 100 CALM      29.88F
CROSSVILLE     CLOUDY    29  26  89 W3        29.86F
$$

TNZ061-075-076-078-094-096-097-270800-
SOUTH MIDDLE TENNESSEE

CITY           SKY/WX    TMP DP  RH WIND       PRES   REMARKS
TULLAHOMA      CLOUDY    32  28  86 CALM      29.91S
WINCHESTER     CLOUDY    34  30  86 CALM      29.92F
SHELBYVILLE    CLOUDY    34  32  93 CALM      29.92S
$$

TNZ017-018-042-046-047-270800-
NORTHEAST TENNESSEE

CITY           SKY/WX    TMP DP  RH WIND       PRES   REMARKS
TRI CITIES     CLOUDY    30  22  72 W8        29.85F WCI  22
ELIZABETHTON   CLOUDY    27  19  74 W8        29.84S WCI  18
$$

TNZ012-013-036-069-073-074-270800-
CENTRAL EAST TENNESSEE

CITY           SKY/WX    TMP DP  RH WIND       PRES   REMARKS
KNOXVILLE      FLURRIES  30  29  96 S3        29.90F
OAK RIDGE      CLOUDY    32  28  85 VRB3      29.91F
GATLINBURG     CLOUDY    30  25  80 SW5       29.90F WCI  25
$$

TNZ083-085-099-270800-
SOUTHEAST TENNESSEE

CITY           SKY/WX    TMP DP  RH WIND       PRES   REMARKS
CHATTANOOGA    CLOUDY    35  30  82 CALM      29.93F
$$

SKY/WX REPORTED AS FAIR MEANS FEW OR NO CLOUDS BELOW
12 THOUSAND FEET.




USA.gov is the U.S. government's official web portal to all federal, state and local government web resources and services.